Weather History for Burnet, TX

Change the Weather History Date:

Monday, December 5, 2011

  Actual Average Record
Temperature  
Mean Temperature 37 °F -  
Max Temperature 41 °F 60 °F 75 °F (1998)
Min Temperature 33 °F 41 °F 28 °F (2005)
Degree Days  
Heating Degree Days 28    
Moisture  
Dew Point 34 °F    
Average Humidity 87    
Maximum Humidity 93    
Minimum Humidity 79    
Precipitation  
Precipitation 0.31 in - - ()
Sea Level Pressure  
Sea Level Pressure 30.15 in    
Wind  
Wind Speed 11 mph (NNW)    
Max Wind Speed 16 mph    
Max Gust Speed 26 mph    
Visibility 7 miles    
Events Rain , Thunderstorm    
Averages and records for this station are not official NWS values.
T = Trace of Precipitation, MM = Missing Value Source: NWS Daily Summary

Daily Weather History Graph

Daily Weather History Graph

Search for Another Location

Airport:

Trip Planner

Search our weather history database for the weather conditions in past years. The results will help you decide how hot, cold, wet, or windy it might be!

Date:

Astronomy

Dec. 05, 2011 Rise Set
Actual Time 7:15 AM CST 5:31 PM CST
Civil Twilight 6:49 AM CST 5:57 PM CST
Nautical Twilight 6:19 AM CST 6:27 PM CST
Astronomical Twilight 5:50 AM CST 6:56 PM CST
Moon 2:18 PM CST (12/5) 2:51 AM CST (12/5)
Length of Visible Light 11h 08m
Length of Day
10h 15m
Waxing Gibbous, 80% of the Moon is Illuminated
Dec 5
Waxing Gibbous
Dec 10
Full
Dec 17
Last Quarter
Dec 24
New
Jan 1
First Quarter

Hourly Weather History & Observations

Time (CST) Temp. Windchill Dew Point Humidity Pressure Visibility Wind Dir Wind Speed Gust Speed Precip Events Conditions
12:34 AM 39.2 °F 33.0 °F 37.4 °F 93% 29.97 in 8.0 mi NE 9.2 mph 23.0 mph 0.10 in Rain , Thunderstorm Light Rain
12:53 AM 39.9 °F 32.9 °F 37.9 °F 93% 29.96 in 5.0 mi NNE 11.5 mph 24.2 mph 0.10 in Rain , Thunderstorm Light Rain
1:05 AM 39.2 °F 33.6 °F 37.4 °F 93% 29.98 in 3.0 mi NNE 8.1 mph 18.4 mph 0.02 in Rain Heavy Rain
1:49 AM 41.0 °F 32.8 °F 37.4 °F 87% 30.05 in 2.5 mi WNW 16.1 mph 26.5 mph 0.09 in Rain , Thunderstorm Heavy Thunderstorms and Rain
1:53 AM 41.0 °F 33.1 °F 37.9 °F 89% 30.04 in 2.0 mi NW 15.0 mph 23.0 mph 0.13 in Rain , Thunderstorm Heavy Thunderstorms and Rain
2:31 AM 41.0 °F 34.7 °F 37.4 °F 87% 30.00 in 5.0 mi NNE 10.4 mph - 0.06 in Rain Light Rain
2:46 AM 39.2 °F 32.5 °F 37.4 °F 93% 29.99 in 10.0 mi NNE 10.4 mph 20.7 mph 0.06 in Rain Light Rain
2:53 AM 39.9 °F 32.5 °F 37.9 °F 93% 30.04 in 8.0 mi NNW 12.7 mph - 0.07 in Rain Rain
3:15 AM 41.0 °F 34.3 °F 37.4 °F 87% 30.05 in 9.0 mi NNW 11.5 mph - 0.00 in Rain , Thunderstorm Light Thunderstorms and Rain
3:34 AM 41.0 °F 34.7 °F 37.4 °F 87% 30.05 in 5.0 mi NNW 10.4 mph 18.4 mph 0.00 in Rain , Thunderstorm Light Thunderstorms and Rain
3:53 AM 41.0 °F 33.9 °F 37.9 °F 89% 30.06 in 9.0 mi NNW 12.7 mph 18.4 mph 0.01 in Rain Light Rain
5:53 AM 39.9 °F 33.4 °F 37.0 °F 89% 30.09 in 10.0 mi North 10.4 mph - 0.00 in   Overcast
7:53 AM 37.9 °F 31.5 °F 34.0 °F 86% 30.14 in 10.0 mi North 9.2 mph 21.9 mph N/A   Overcast
8:53 AM 39.0 °F 32.8 °F 35.1 °F 86% 30.17 in 10.0 mi North 9.2 mph 17.3 mph N/A   Overcast
9:53 AM 39.9 °F 32.5 °F 35.1 °F 83% 30.19 in 10.0 mi North 12.7 mph 20.7 mph N/A   Overcast
10:53 AM 39.0 °F 31.8 °F 35.1 °F 86% 30.21 in 8.0 mi North 11.5 mph 19.6 mph N/A   Overcast
11:53 AM 39.9 °F 32.1 °F 35.1 °F 83% 30.19 in 8.0 mi North 13.8 mph 23.0 mph N/A   Overcast
12:53 PM 39.9 °F 31.8 °F 35.1 °F 83% 30.18 in 9.0 mi NNW 15.0 mph 18.4 mph N/A   Overcast
1:53 PM 39.9 °F 32.5 °F 34.0 °F 79% 30.17 in 10.0 mi NNW 12.7 mph 19.6 mph N/A   Overcast
2:53 PM 39.0 °F 31.0 °F 34.0 °F 82% 30.17 in 8.0 mi NNW 13.8 mph 19.6 mph N/A   Overcast
4:53 PM 37.9 °F 31.5 °F 32.0 °F 79% 30.19 in 10.0 mi North 9.2 mph 18.4 mph N/A   Overcast
5:53 PM 37.0 °F 28.9 °F 32.0 °F 82% 30.21 in 10.0 mi North 12.7 mph 18.4 mph N/A   Overcast
6:53 PM 36.0 °F 28.0 °F 33.1 °F 89% 30.23 in 4.0 mi NNW 11.5 mph - 0.00 in   Overcast
7:26 PM 35.6 °F 27.5 °F 32.0 °F 87% 30.23 in 8.0 mi NNW 11.5 mph 18.4 mph 0.00 in   Overcast
7:36 PM 35.6 °F 28.6 °F 32.0 °F 87% 30.24 in 7.0 mi NNW 9.2 mph 19.6 mph 0.00 in   Overcast
7:53 PM 35.1 °F 27.4 °F 32.0 °F 89% 30.26 in 5.0 mi North 10.4 mph 19.6 mph 0.00 in   Overcast
8:53 PM 35.1 °F 25.9 °F 32.0 °F 89% 30.28 in 7.0 mi North 13.8 mph 19.6 mph 0.00 in   Overcast
9:53 PM 34.0 °F 26.0 °F 30.9 °F 89% 30.30 in 6.0 mi North 10.4 mph - N/A   Overcast
10:06 PM 33.8 °F 24.3 °F 30.2 °F 87% 30.28 in 5.0 mi NNW 13.8 mph 18.4 mph N/A   Overcast
10:34 PM 33.8 °F 24.8 °F 28.4 °F 81% 30.29 in 8.0 mi North 12.7 mph 19.6 mph N/A   Overcast
10:53 PM 33.1 °F 24.4 °F 28.9 °F 85% 30.30 in 8.0 mi North 11.5 mph 19.6 mph N/A   Overcast
11:53 PM 33.1 °F 24.9 °F 28.0 °F 82% 30.30 in 7.0 mi North 10.4 mph 17.3 mph N/A   Overcast